Time,TemperatureF,DewpointF,PressureIn,WindDirection,WindDirectionDegrees,WindSpeedMPH,WindSpeedGustMPH,Humidity,HourlyPrecipIn,Conditions,Clouds,dailyrainin,SoftwareType,DateUTC
2014-10-22 00:05:00,46.2,46.0,30.22,NW,315,0.7,2.2,99,0.00,,,0.00,pywws,2014-10-22 04:05:00,
2014-10-22 00:10:00,46.0,45.8,30.22,NE,45,0.7,3.1,99,0.00,,,0.00,pywws,2014-10-22 04:10:00,
2014-10-22 00:16:00,46.0,45.8,30.22,NE,45,1.6,5.4,99,0.01,,,0.01,pywws,2014-10-22 04:16:00,
2014-10-22 00:21:00,46.0,45.8,30.22,North,0,1.6,3.8,99,0.01,,,0.01,pywws,2014-10-22 04:21:00,
2014-10-22 00:26:00,46.0,45.8,30.22,North,0,3.8,6.9,99,0.01,,,0.01,pywws,2014-10-22 04:26:00,
2014-10-22 00:32:00,45.9,45.6,30.22,North,0,1.6,3.1,99,0.01,,,0.01,pywws,2014-10-22 04:32:00,
2014-10-22 00:37:00,46.0,45.8,30.22,NE,45,3.1,4.5,99,0.01,,,0.01,pywws,2014-10-22 04:37:00,
2014-10-22 00:42:00,45.9,45.6,30.22,NE,45,1.6,3.1,99,0.01,,,0.01,pywws,2014-10-22 04:42:00,
2014-10-22 00:48:00,45.9,45.6,30.22,North,0,3.1,6.9,99,0.01,,,0.01,pywws,2014-10-22 04:48:00,
2014-10-22 00:53:00,45.7,45.4,30.22,North,0,2.2,4.5,99,0.01,,,0.01,pywws,2014-10-22 04:53:00,
2014-10-22 00:59:00,45.7,45.4,30.22,NE,45,2.2,6.9,99,0.01,,,0.01,pywws,2014-10-22 04:59:00,
2014-10-22 01:04:00,45.7,45.4,30.21,East,90,1.6,3.1,99,0.01,,,0.01,pywws,2014-10-22 05:04:00,
2014-10-22 01:10:00,45.5,45.2,30.21,NW,315,2.2,3.8,99,0.01,,,0.01,pywws,2014-10-22 05:10:00,
2014-10-22 01:16:00,45.5,45.2,30.21,NW,315,1.6,5.4,99,0.00,,,0.01,pywws,2014-10-22 05:16:00,
2014-10-22 01:22:00,45.5,45.2,30.21,NE,45,2.2,3.8,99,0.00,,,0.01,pywws,2014-10-22 05:22:00,
2014-10-22 01:28:00,45.5,45.2,30.22,North,0,1.6,3.8,99,0.00,,,0.01,pywws,2014-10-22 05:28:00,
2014-10-22 01:34:00,45.5,45.2,30.22,NE,45,1.6,3.8,99,0.00,,,0.01,pywws,2014-10-22 05:34:00,
2014-10-22 01:40:00,45.3,45.1,30.22,North,0,0.7,3.1,99,0.00,,,0.01,pywws,2014-10-22 05:40:00,
2014-10-22 01:47:00,45.3,45.1,30.22,North,0,2.2,4.5,99,0.00,,,0.01,pywws,2014-10-22 05:47:00,
2014-10-22 01:53:00,45.3,45.1,30.22,NE,45,0.7,2.2,99,0.00,,,0.01,pywws,2014-10-22 05:53:00,
2014-10-22 01:58:00,45.3,45.1,30.22,North,0,1.6,3.8,99,0.01,,,0.02,pywws,2014-10-22 05:58:00,
2014-10-22 02:05:00,45.3,45.1,30.22,North,0,0.7,2.2,99,0.01,,,0.02,pywws,2014-10-22 06:05:00,
2014-10-22 02:10:00,45.3,45.1,30.22,NW,315,0.7,3.1,99,0.02,,,0.04,pywws,2014-10-22 06:10:00,
2014-10-22 02:16:00,45.3,45.1,30.22,North,0,2.2,5.4,99,0.02,,,0.04,pywws,2014-10-22 06:16:00,
2014-10-22 02:22:00,45.3,45.1,30.22,NW,315,0.7,2.2,99,0.02,,,0.04,pywws,2014-10-22 06:22:00,
2014-10-22 02:28:00,45.3,45.1,30.22,NE,45,3.8,5.4,99,0.02,,,0.04,pywws,2014-10-22 06:28:00,
2014-10-22 02:34:00,45.1,44.9,30.22,North,0,3.1,5.4,99,0.02,,,0.04,pywws,2014-10-22 06:34:00,
2014-10-22 02:40:00,45.1,44.9,30.22,North,0,0.7,2.2,99,0.02,,,0.04,pywws,2014-10-22 06:40:00,
2014-10-22 02:46:00,45.1,44.9,30.21,North,0,2.2,3.8,99,0.02,,,0.04,pywws,2014-10-22 06:46:00,
2014-10-22 02:52:00,45.1,44.9,30.22,North,0,0.7,2.2,99,0.02,,,0.04,pywws,2014-10-22 06:52:00,
2014-10-22 02:58:00,45.1,44.9,30.22,East,90,0.7,3.1,99,0.01,,,0.04,pywws,2014-10-22 06:58:00,
2014-10-22 03:04:00,45.1,44.9,30.22,NW,315,1.6,3.1,99,0.01,,,0.04,pywws,2014-10-22 07:04:00,
2014-10-22 03:10:00,45.1,44.9,30.22,North,0,0.0,1.6,99,0.00,,,0.04,pywws,2014-10-22 07:10:00,
2014-10-22 03:16:00,45.3,45.1,30.22,NW,315,0.7,1.6,99,0.00,,,0.04,pywws,2014-10-22 07:16:00,
2014-10-22 03:23:00,45.1,44.9,30.22,NW,315,0.7,2.2,99,0.00,,,0.04,pywws,2014-10-22 07:23:00,
2014-10-22 03:29:00,45.1,44.9,30.22,NW,315,0.7,2.2,99,0.00,,,0.04,pywws,2014-10-22 07:29:00,
2014-10-22 03:34:00,45.0,44.7,30.22,NW,315,1.6,3.1,99,0.00,,,0.04,pywws,2014-10-22 07:34:00,
2014-10-22 03:40:00,45.0,44.7,30.22,North,0,1.6,2.2,99,0.00,,,0.04,pywws,2014-10-22 07:40:00,
2014-10-22 03:47:00,45.0,44.7,30.22,North,0,0.7,2.2,99,0.00,,,0.04,pywws,2014-10-22 07:47:00,
2014-10-22 03:52:00,44.8,44.5,30.22,North,0,0.0,2.2,99,0.00,,,0.04,pywws,2014-10-22 07:52:00,
2014-10-22 03:58:00,45.0,44.7,30.22,North,0,0.0,1.6,99,0.00,,,0.04,pywws,2014-10-22 07:58:00,
2014-10-22 04:04:00,45.0,44.7,30.22,North,0,0.7,2.2,99,0.00,,,0.04,pywws,2014-10-22 08:04:00,
2014-10-22 04:09:00,45.0,44.7,30.22,North,0,1.6,3.1,99,0.00,,,0.04,pywws,2014-10-22 08:09:00,
2014-10-22 04:15:00,45.0,44.7,30.23,North,0,0.7,2.2,99,0.00,,,0.04,pywws,2014-10-22 08:15:00,
2014-10-22 04:20:00,45.0,44.7,30.23,North,0,0.7,1.6,99,0.00,,,0.04,pywws,2014-10-22 08:20:00,
2014-10-22 04:26:00,45.0,44.7,30.23,North,0,0.7,2.2,99,0.00,,,0.04,pywws,2014-10-22 08:26:00,
2014-10-22 04:33:00,45.0,44.7,30.23,North,0,1.6,3.8,99,0.00,,,0.04,pywws,2014-10-22 08:33:00,
2014-10-22 04:38:00,45.0,44.7,30.23,NW,315,0.7,2.2,99,0.00,,,0.04,pywws,2014-10-22 08:38:00,
2014-10-22 04:44:00,45.0,44.7,30.23,NW,315,0.7,1.6,99,0.00,,,0.04,pywws,2014-10-22 08:44:00,
2014-10-22 04:49:00,45.0,44.7,30.23,NW,315,1.6,3.1,99,0.00,,,0.04,pywws,2014-10-22 08:49:00,
2014-10-22 04:54:00,45.0,44.7,30.23,NE,45,0.7,2.2,99,0.00,,,0.04,pywws,2014-10-22 08:54:00,
2014-10-22 05:01:00,45.0,44.7,30.23,NW,315,2.2,3.8,99,0.00,,,0.04,pywws,2014-10-22 09:01:00,
2014-10-22 05:06:00,45.0,44.7,30.23,NW,315,2.2,3.8,99,0.00,,,0.04,pywws,2014-10-22 09:06:00,
2014-10-22 05:11:00,45.0,44.7,30.24,WNW,292,0.7,2.2,99,0.00,,,0.04,pywws,2014-10-22 09:11:00,
2014-10-22 05:17:00,45.0,44.7,30.24,NW,315,0.7,1.6,99,0.00,,,0.04,pywws,2014-10-22 09:17:00,
2014-10-22 05:22:00,44.8,44.5,30.24,North,0,0.0,1.6,99,0.00,,,0.04,pywws,2014-10-22 09:22:00,
2014-10-22 05:28:00,44.8,44.5,30.24,North,0,0.7,2.2,99,0.00,,,0.04,pywws,2014-10-22 09:28:00,
2014-10-22 05:34:00,44.6,44.3,30.24,North,0,0.7,1.6,99,0.00,,,0.04,pywws,2014-10-22 09:34:00,
2014-10-22 05:40:00,44.6,44.3,30.24,NE,45,0.0,0.7,99,0.00,,,0.04,pywws,2014-10-22 09:40:00,
2014-10-22 05:46:00,44.4,44.2,30.25,NE,45,0.7,1.6,99,0.00,,,0.04,pywws,2014-10-22 09:46:00,
2014-10-22 05:52:00,44.4,44.2,30.24,NW,315,0.0,0.7,99,0.00,,,0.04,pywws,2014-10-22 09:52:00,
2014-10-22 05:58:00,44.4,44.2,30.25,NE,45,1.6,3.1,99,0.00,,,0.04,pywws,2014-10-22 09:58:00,
2014-10-22 06:05:00,44.6,44.3,30.25,North,0,1.6,3.8,99,0.00,,,0.04,pywws,2014-10-22 10:05:00,
2014-10-22 06:10:00,44.6,44.3,30.25,North,0,2.2,4.5,99,0.00,,,0.04,pywws,2014-10-22 10:10:00,
2014-10-22 06:16:00,44.6,44.3,30.25,North,0,1.6,3.8,99,0.00,,,0.04,pywws,2014-10-22 10:16:00,
2014-10-22 06:21:00,44.6,44.3,30.26,North,0,1.6,3.1,99,0.00,,,0.04,pywws,2014-10-22 10:21:00,
2014-10-22 06:27:00,44.6,44.3,30.26,SE,135,1.6,3.1,99,0.00,,,0.04,pywws,2014-10-22 10:27:00,
2014-10-22 06:33:00,44.4,44.2,30.26,NE,45,0.7,3.8,99,0.00,,,0.04,pywws,2014-10-22 10:33:00,
2014-10-22 06:39:00,44.4,44.2,30.26,NE,45,0.7,2.2,99,0.00,,,0.04,pywws,2014-10-22 10:39:00,
2014-10-22 06:44:00,44.4,44.2,30.26,North,0,1.6,3.1,99,0.00,,,0.04,pywws,2014-10-22 10:44:00,
2014-10-22 06:50:00,44.2,44.0,30.26,North,0,0.0,2.2,99,0.00,,,0.04,pywws,2014-10-22 10:50:00,
2014-10-22 06:56:00,44.4,44.2,30.27,North,0,1.6,2.2,99,0.00,,,0.04,pywws,2014-10-22 10:56:00,
2014-10-22 07:02:00,44.4,44.2,30.27,NE,45,1.6,3.1,99,0.00,,,0.04,pywws,2014-10-22 11:02:00,
2014-10-22 07:08:00,44.4,44.2,30.27,North,0,1.6,2.2,99,0.00,,,0.04,pywws,2014-10-22 11:08:00,
2014-10-22 07:14:00,44.4,44.2,30.27,North,0,1.6,3.8,99,0.00,,,0.04,pywws,2014-10-22 11:14:00,
2014-10-22 07:20:00,44.4,44.2,30.27,North,0,0.7,2.2,99,0.00,,,0.04,pywws,2014-10-22 11:20:00,
2014-10-22 07:26:00,44.4,44.2,30.28,NE,45,1.6,3.8,99,0.00,,,0.04,pywws,2014-10-22 11:26:00,
2014-10-22 07:32:00,44.4,44.2,30.28,NE,45,0.7,2.2,99,0.00,,,0.04,pywws,2014-10-22 11:32:00,
2014-10-22 07:38:00,44.4,44.2,30.28,North,0,0.7,2.2,99,0.00,,,0.04,pywws,2014-10-22 11:38:00,
2014-10-22 07:44:00,44.4,44.2,30.28,North,0,0.7,3.1,99,0.00,,,0.04,pywws,2014-10-22 11:44:00,
2014-10-22 07:51:00,44.6,44.3,30.28,NW,315,0.0,0.7,99,0.00,,,0.04,pywws,2014-10-22 11:51:00,
2014-10-22 07:57:00,44.6,44.3,30.29,North,0,1.6,5.4,99,0.00,,,0.04,pywws,2014-10-22 11:57:00,
2014-10-22 08:02:00,44.6,44.3,30.29,North,0,1.6,4.5,99,0.00,,,0.04,pywws,2014-10-22 12:02:00,
2014-10-22 08:08:00,44.6,44.3,30.29,North,0,0.7,2.2,99,0.00,,,0.04,pywws,2014-10-22 12:08:00,
2014-10-22 08:14:00,44.6,44.3,30.29,North,0,2.2,6.0,99,0.00,,,0.04,pywws,2014-10-22 12:14:00,
2014-10-22 08:20:00,44.8,44.5,30.29,NE,45,1.6,5.4,99,0.00,,,0.04,pywws,2014-10-22 12:20:00,
2014-10-22 08:26:00,44.8,44.5,30.29,North,0,0.7,3.8,99,0.00,,,0.04,pywws,2014-10-22 12:26:00,
2014-10-22 08:32:00,44.8,44.5,30.30,NE,45,1.6,4.5,99,0.01,,,0.05,pywws,2014-10-22 12:32:00,
2014-10-22 08:38:00,44.8,44.5,30.30,North,0,1.6,3.8,99,0.02,,,0.06,pywws,2014-10-22 12:38:00,
2014-10-22 08:45:00,44.8,44.5,30.31,NE,45,2.2,3.8,99,0.04,,,0.07,pywws,2014-10-22 12:45:00,
2014-10-22 08:50:00,45.0,44.7,30.31,North,0,1.6,3.1,99,0.04,,,0.07,pywws,2014-10-22 12:50:00,
2014-10-22 08:56:00,45.0,44.7,30.31,North,0,1.6,3.8,99,0.05,,,0.08,pywws,2014-10-22 12:56:00,
2014-10-22 09:02:00,45.0,44.7,30.31,WNW,292,1.6,3.1,99,0.05,,,0.08,pywws,2014-10-22 13:02:00,
2014-10-22 09:08:00,45.1,44.9,30.32,West,270,2.2,3.8,99,0.05,,,0.08,pywws,2014-10-22 13:08:00,
2014-10-22 09:14:00,45.1,44.9,30.32,North,0,2.2,4.5,99,0.05,,,0.08,pywws,2014-10-22 13:14:00,
2014-10-22 09:20:00,45.1,44.9,30.31,NW,315,2.2,4.5,99,0.05,,,0.08,pywws,2014-10-22 13:20:00,
2014-10-22 09:26:00,45.3,45.1,30.32,NE,45,3.1,4.5,99,0.05,,,0.08,pywws,2014-10-22 13:26:00,
2014-10-22 09:32:00,45.1,44.9,30.31,North,0,3.1,4.5,99,0.04,,,0.08,pywws,2014-10-22 13:32:00,
2014-10-22 09:38:00,45.3,45.1,30.32,NE,45,0.7,2.2,99,0.02,,,0.08,pywws,2014-10-22 13:38:00,
2014-10-22 09:44:00,45.3,45.1,30.32,North,0,1.6,3.1,99,0.01,,,0.08,pywws,2014-10-22 13:44:00,
2014-10-22 09:50:00,45.5,45.2,30.32,NW,315,3.1,4.5,99,0.01,,,0.08,pywws,2014-10-22 13:50:00,
2014-10-22 09:56:00,45.5,45.2,30.32,NW,315,2.2,3.8,99,0.00,,,0.08,pywws,2014-10-22 13:56:00,
2014-10-22 10:02:00,45.7,45.4,30.32,North,0,2.2,3.8,99,0.00,,,0.08,pywws,2014-10-22 14:02:00,
2014-10-22 10:08:00,45.9,45.6,30.32,NE,45,0.7,2.2,99,0.00,,,0.08,pywws,2014-10-22 14:08:00,
2014-10-22 10:14:00,45.9,45.6,30.32,North,0,3.1,4.5,99,0.00,,,0.08,pywws,2014-10-22 14:14:00,
2014-10-22 10:20:00,46.2,46.0,30.32,North,0,2.2,5.4,99,0.00,,,0.08,pywws,2014-10-22 14:20:00,
2014-10-22 10:26:00,46.0,45.8,30.32,North,0,3.8,7.6,99,0.00,,,0.08,pywws,2014-10-22 14:26:00,
2014-10-22 10:32:00,46.2,46.0,30.32,North,0,1.6,3.1,99,0.00,,,0.08,pywws,2014-10-22 14:32:00,
2014-10-22 10:38:00,46.6,46.3,30.32,North,0,0.7,2.2,99,0.01,,,0.09,pywws,2014-10-22 14:38:00,
2014-10-22 10:44:00,46.8,46.5,30.32,West,270,1.6,4.5,99,0.01,,,0.09,pywws,2014-10-22 14:44:00,
2014-10-22 10:51:00,46.4,46.1,30.32,North,0,3.1,5.4,99,0.01,,,0.09,pywws,2014-10-22 14:51:00,
2014-10-22 10:56:00,46.4,46.1,30.32,North,0,4.5,6.9,99,0.01,,,0.09,pywws,2014-10-22 14:56:00,
2014-10-22 11:02:00,46.4,46.1,30.32,NE,45,3.8,8.3,99,0.01,,,0.09,pywws,2014-10-22 15:02:00,
2014-10-22 11:08:00,46.6,46.3,30.32,North,0,1.6,4.5,99,0.01,,,0.09,pywws,2014-10-22 15:08:00,
2014-10-22 11:16:00,46.8,46.5,30.32,North,0,1.6,3.1,99,0.01,,,0.09,pywws,2014-10-22 15:16:00,
2014-10-22 11:21:00,46.8,46.5,30.32,NE,45,3.1,8.3,99,0.01,,,0.09,pywws,2014-10-22 15:21:00,
2014-10-22 11:27:00,46.8,46.5,30.32,North,0,2.2,5.4,99,0.01,,,0.09,pywws,2014-10-22 15:27:00,
2014-10-22 11:33:00,46.8,46.5,30.33,NW,315,2.2,3.8,99,0.01,,,0.09,pywws,2014-10-22 15:33:00,
2014-10-22 11:38:00,46.9,46.7,30.33,North,0,1.6,3.8,99,0.00,,,0.09,pywws,2014-10-22 15:38:00,
2014-10-22 11:44:00,47.1,46.9,30.32,NW,315,3.1,5.4,99,0.00,,,0.09,pywws,2014-10-22 15:44:00,
2014-10-22 11:51:00,47.1,46.9,30.32,West,270,1.6,3.8,99,0.00,,,0.09,pywws,2014-10-22 15:51:00,
2014-10-22 11:57:00,46.9,46.7,30.32,North,0,4.5,9.8,99,0.00,,,0.09,pywws,2014-10-22 15:57:00,
2014-10-22 12:02:00,47.1,46.9,30.32,NW,315,3.1,5.4,99,0.00,,,0.09,pywws,2014-10-22 16:02:00,
2014-10-22 12:08:00,47.3,47.0,30.32,NE,45,2.2,4.5,99,0.00,,,0.09,pywws,2014-10-22 16:08:00,
2014-10-22 12:14:00,47.5,47.2,30.32,North,0,3.1,6.0,99,0.00,,,0.09,pywws,2014-10-22 16:14:00,
2014-10-22 12:20:00,47.3,47.0,30.32,North,0,4.5,8.3,99,0.00,,,0.09,pywws,2014-10-22 16:20:00,
2014-10-22 12:26:00,47.3,47.0,30.32,North,0,3.1,5.4,99,0.00,,,0.09,pywws,2014-10-22 16:26:00,
2014-10-22 12:32:00,47.3,47.0,30.32,SE,135,2.2,4.5,99,0.00,,,0.09,pywws,2014-10-22 16:32:00,
2014-10-22 12:38:00,47.1,46.9,30.32,NE,45,2.2,4.5,99,0.00,,,0.09,pywws,2014-10-22 16:38:00,
2014-10-22 12:44:00,47.3,47.0,30.31,North,0,0.0,1.6,99,0.00,,,0.09,pywws,2014-10-22 16:44:00,
2014-10-22 12:51:00,47.3,47.0,30.31,East,90,1.6,5.4,99,0.00,,,0.09,pywws,2014-10-22 16:51:00,
2014-10-22 12:56:00,47.1,46.9,30.32,North,0,4.5,8.3,99,0.00,,,0.09,pywws,2014-10-22 16:56:00,
2014-10-22 13:02:00,47.3,47.0,30.31,NW,315,1.6,3.8,99,0.00,,,0.09,pywws,2014-10-22 17:02:00,
2014-10-22 13:08:00,47.5,47.2,30.31,North,0,3.1,4.5,99,0.00,,,0.09,pywws,2014-10-22 17:08:00,
2014-10-22 13:14:00,47.7,47.4,30.31,North,0,4.5,8.3,99,0.00,,,0.09,pywws,2014-10-22 17:14:00,
2014-10-22 13:20:00,47.7,47.4,30.31,NNE,22,3.8,9.8,99,0.00,,,0.09,pywws,2014-10-22 17:20:00,
2014-10-22 13:26:00,47.7,47.4,30.31,NE,45,4.5,10.7,99,0.00,,,0.09,pywws,2014-10-22 17:26:00,
2014-10-22 13:32:00,47.8,47.6,30.30,East,90,4.5,9.8,99,0.00,,,0.09,pywws,2014-10-22 17:32:00,
2014-10-22 13:38:00,48.7,48.5,30.29,NE,45,3.8,6.9,99,0.00,,,0.09,pywws,2014-10-22 17:38:00,
2014-10-22 13:44:00,49.1,48.3,30.29,North,0,3.8,8.3,97,0.00,,,0.09,pywws,2014-10-22 17:44:00,
2014-10-22 13:50:00,49.5,48.4,30.29,North,0,2.2,5.4,96,0.00,,,0.09,pywws,2014-10-22 17:50:00,
2014-10-22 13:56:00,49.5,47.8,30.29,WNW,292,1.6,3.8,94,0.00,,,0.09,pywws,2014-10-22 17:56:00,
2014-10-22 14:02:00,49.5,47.8,30.29,North,0,4.5,6.9,94,0.00,,,0.09,pywws,2014-10-22 18:02:00,
2014-10-22 14:08:00,49.8,47.9,30.29,NE,45,5.4,11.4,93,0.00,,,0.09,pywws,2014-10-22 18:08:00,
2014-10-22 14:14:00,50.5,47.7,30.28,NE,45,5.4,9.2,90,0.00,,,0.09,pywws,2014-10-22 18:14:00,
2014-10-22 14:20:00,50.7,47.3,30.28,NW,315,3.8,6.9,88,0.00,,,0.09,pywws,2014-10-22 18:20:00,
2014-10-22 14:26:00,50.7,47.0,30.28,NE,45,3.8,7.6,87,0.00,,,0.09,pywws,2014-10-22 18:26:00,
2014-10-22 14:32:00,51.1,47.0,30.28,North,0,4.5,9.2,86,0.00,,,0.09,pywws,2014-10-22 18:32:00,
2014-10-22 14:38:00,51.3,46.9,30.28,North,0,6.0,16.8,85,0.00,,,0.09,pywws,2014-10-22 18:38:00,
2014-10-22 14:44:00,51.4,46.8,30.28,NW,315,2.2,5.4,84,0.00,,,0.09,pywws,2014-10-22 18:44:00,
2014-10-22 14:51:00,51.8,47.1,30.28,North,0,4.5,7.6,84,0.00,,,0.09,pywws,2014-10-22 18:51:00,
2014-10-22 14:57:00,53.1,48.0,30.28,West,270,3.8,6.0,83,0.00,,,0.09,pywws,2014-10-22 18:57:00,
2014-10-22 15:03:00,53.6,48.2,30.28,NE,45,4.5,7.6,82,0.00,,,0.09,pywws,2014-10-22 19:03:00,
2014-10-22 15:09:00,53.4,47.7,30.28,NE,45,5.4,9.2,81,0.00,,,0.09,pywws,2014-10-22 19:09:00,
2014-10-22 15:14:00,54.0,47.9,30.28,NE,45,2.2,4.5,80,0.00,,,0.09,pywws,2014-10-22 19:14:00,
2014-10-22 15:20:00,54.3,47.9,30.28,NE,45,3.1,6.9,79,0.00,,,0.09,pywws,2014-10-22 19:20:00,
2014-10-22 15:26:00,54.1,47.8,30.29,East,90,3.1,4.5,79,0.00,,,0.09,pywws,2014-10-22 19:26:00,
2014-10-22 15:32:00,54.3,47.3,30.28,North,0,4.5,8.3,77,0.00,,,0.09,pywws,2014-10-22 19:32:00,
2014-10-22 15:38:00,54.5,47.4,30.29,North,0,3.8,8.3,77,0.00,,,0.09,pywws,2014-10-22 19:38:00,
2014-10-22 15:44:00,54.3,47.3,30.28,North,0,1.6,3.8,77,0.00,,,0.09,pywws,2014-10-22 19:44:00,
2014-10-22 15:50:00,54.1,47.1,30.27,NE,45,5.4,9.8,77,0.00,,,0.09,pywws,2014-10-22 19:50:00,
2014-10-22 15:56:00,54.0,47.3,30.27,North,0,2.2,3.8,78,0.00,,,0.09,pywws,2014-10-22 19:56:00,
2014-10-22 16:02:00,54.3,47.9,30.27,North,0,0.7,2.2,79,0.00,,,0.09,pywws,2014-10-22 20:02:00,
2014-10-22 16:08:00,54.3,47.6,30.27,West,270,2.2,5.4,78,0.00,,,0.09,pywws,2014-10-22 20:08:00,
2014-10-22 16:14:00,54.3,47.3,30.27,North,0,3.1,8.3,77,0.00,,,0.09,pywws,2014-10-22 20:14:00,
2014-10-22 16:20:00,54.3,46.2,30.27,North,0,5.4,9.2,74,0.00,,,0.09,pywws,2014-10-22 20:20:00,
2014-10-22 16:26:00,54.3,45.9,30.27,North,0,3.8,6.9,73,0.00,,,0.09,pywws,2014-10-22 20:26:00,
2014-10-22 16:32:00,54.3,45.5,30.27,North,0,7.6,11.4,72,0.00,,,0.09,pywws,2014-10-22 20:32:00,
2014-10-22 16:38:00,54.3,45.5,30.27,NE,45,4.5,8.3,72,0.00,,,0.09,pywws,2014-10-22 20:38:00,
2014-10-22 16:44:00,54.3,45.5,30.27,North,0,3.8,6.9,72,0.00,,,0.09,pywws,2014-10-22 20:44:00,
2014-10-22 16:50:00,54.1,45.7,30.26,NE,45,3.1,5.4,73,0.00,,,0.09,pywws,2014-10-22 20:50:00,
2014-10-22 16:56:00,54.1,45.3,30.26,North,0,3.8,7.6,72,0.00,,,0.09,pywws,2014-10-22 20:56:00,
2014-10-22 17:02:00,54.1,45.3,30.26,NW,315,3.1,5.4,72,0.00,,,0.09,pywws,2014-10-22 21:02:00,
2014-10-22 17:08:00,54.0,45.1,30.26,North,0,3.8,8.3,72,0.00,,,0.09,pywws,2014-10-22 21:08:00,
2014-10-22 17:15:00,54.0,45.5,30.26,North,0,2.2,6.0,73,0.00,,,0.09,pywws,2014-10-22 21:15:00,
2014-10-22 17:21:00,54.0,45.1,30.26,NE,45,4.5,8.3,72,0.00,,,0.09,pywws,2014-10-22 21:21:00,
2014-10-22 17:26:00,54.0,45.1,30.27,East,90,2.2,5.4,72,0.00,,,0.09,pywws,2014-10-22 21:26:00,
2014-10-22 17:32:00,53.8,45.3,30.27,NE,45,2.2,5.4,73,0.00,,,0.09,pywws,2014-10-22 21:32:00,
2014-10-22 17:39:00,53.6,45.5,30.27,North,0,3.1,8.3,74,0.00,,,0.09,pywws,2014-10-22 21:39:00,
2014-10-22 17:46:00,53.4,45.3,30.26,NE,45,2.2,3.8,74,0.00,,,0.09,pywws,2014-10-22 21:46:00,
2014-10-22 17:51:00,53.2,45.2,30.26,North,0,2.2,5.4,74,0.00,,,0.09,pywws,2014-10-22 21:51:00,
2014-10-22 17:59:00,53.2,45.2,30.26,North,0,4.5,7.6,74,0.00,,,0.09,pywws,2014-10-22 21:59:00,
2014-10-22 18:05:00,53.1,45.0,30.26,East,90,4.5,8.3,74,0.00,,,0.09,pywws,2014-10-22 22:05:00,
2014-10-22 18:10:00,52.9,44.8,30.26,NW,315,4.5,9.2,74,0.00,,,0.09,pywws,2014-10-22 22:10:00,
2014-10-22 18:16:00,52.9,44.8,30.26,North,0,4.5,7.6,74,0.00,,,0.09,pywws,2014-10-22 22:16:00,
2014-10-22 18:22:00,52.7,44.6,30.26,North,0,5.4,6.9,74,0.00,,,0.09,pywws,2014-10-22 22:22:00,
2014-10-22 18:28:00,52.7,44.6,30.26,East,90,3.8,9.8,74,0.00,,,0.09,pywws,2014-10-22 22:28:00,
2014-10-22 18:35:00,52.3,44.7,30.26,North,0,3.1,6.0,75,0.00,,,0.09,pywws,2014-10-22 22:35:00,
2014-10-22 18:41:00,52.2,44.5,30.26,SE,135,4.5,7.6,75,0.00,,,0.09,pywws,2014-10-22 22:41:00,
2014-10-22 18:47:00,52.2,44.1,30.26,North,0,3.1,4.5,74,0.00,,,0.09,pywws,2014-10-22 22:47:00,
2014-10-22 18:53:00,52.2,44.1,30.26,East,90,1.6,4.5,74,0.00,,,0.09,pywws,2014-10-22 22:53:00,
2014-10-22 18:59:00,52.0,44.0,30.26,NE,45,4.5,9.2,74,0.00,,,0.09,pywws,2014-10-22 22:59:00,
2014-10-22 19:06:00,51.8,43.8,30.26,NE,45,1.6,2.2,74,0.00,,,0.09,pywws,2014-10-22 23:06:00,
2014-10-22 19:11:00,51.8,43.8,30.26,NE,45,1.6,3.8,74,0.00,,,0.09,pywws,2014-10-22 23:11:00,
2014-10-22 19:17:00,51.8,43.8,30.25,North,0,1.6,6.0,74,0.00,,,0.09,pywws,2014-10-22 23:17:00,
2014-10-22 19:23:00,51.8,43.8,30.25,NE,45,4.5,9.2,74,0.00,,,0.09,pywws,2014-10-22 23:23:00,
2014-10-22 19:30:00,51.4,43.4,30.25,North,0,3.8,7.6,74,0.00,,,0.09,pywws,2014-10-22 23:30:00,
2014-10-22 19:35:00,51.1,43.8,30.25,NW,315,2.2,5.4,76,0.00,,,0.09,pywws,2014-10-22 23:35:00,
2014-10-22 19:41:00,50.7,43.4,30.25,NE,45,3.8,9.8,76,0.00,,,0.09,pywws,2014-10-22 23:41:00,
2014-10-22 19:47:00,50.5,43.6,30.25,SE,135,1.6,4.5,77,0.00,,,0.09,pywws,2014-10-22 23:47:00,
2014-10-22 19:53:00,50.4,43.4,30.26,North,0,2.2,5.4,77,0.00,,,0.09,pywws,2014-10-22 23:53:00,
2014-10-22 19:59:00,50.0,43.4,30.25,North,0,2.2,3.8,78,0.00,,,0.09,pywws,2014-10-22 23:59:00,
2014-10-22 20:05:00,49.8,43.2,30.25,East,90,2.2,5.4,78,0.00,,,0.09,pywws,2014-10-23 00:05:00,
2014-10-22 20:11:00,49.6,43.4,30.24,NE,45,3.8,6.0,79,0.00,,,0.09,pywws,2014-10-23 00:11:00,
2014-10-22 20:17:00,49.6,43.4,30.24,NW,315,3.8,11.4,79,0.00,,,0.09,pywws,2014-10-23 00:17:00,
2014-10-22 20:23:00,49.5,42.9,30.25,East,90,3.8,7.6,78,0.00,,,0.09,pywws,2014-10-23 00:23:00,
2014-10-22 20:29:00,49.3,43.0,30.25,North,0,4.5,9.2,79,0.00,,,0.09,pywws,2014-10-23 00:29:00,
2014-10-22 20:35:00,49.1,42.9,30.24,NW,315,2.2,5.4,79,0.00,,,0.09,pywws,2014-10-23 00:35:00,
2014-10-22 20:41:00,48.9,42.4,30.25,North,0,5.4,9.2,78,0.00,,,0.09,pywws,2014-10-23 00:41:00,
2014-10-22 20:46:00,48.7,42.5,30.24,NW,315,2.2,4.5,79,0.00,,,0.09,pywws,2014-10-23 00:46:00,
2014-10-22 20:52:00,48.4,42.2,30.24,NW,315,4.5,9.8,79,0.00,,,0.09,pywws,2014-10-23 00:52:00,
2014-10-22 20:58:00,48.4,42.2,30.24,North,0,2.2,9.2,79,0.00,,,0.09,pywws,2014-10-23 00:58:00,
2014-10-22 21:04:00,48.2,41.7,30.24,North,0,6.0,14.5,78,0.00,,,0.09,pywws,2014-10-23 01:04:00,
2014-10-22 21:10:00,48.2,41.7,30.24,North,0,2.2,5.4,78,0.00,,,0.09,pywws,2014-10-23 01:10:00,
2014-10-22 21:16:00,48.2,41.7,30.24,NE,45,3.1,7.6,78,0.00,,,0.09,pywws,2014-10-23 01:16:00,
2014-10-22 21:21:00,48.0,41.5,30.24,NE,45,4.5,10.7,78,0.00,,,0.09,pywws,2014-10-23 01:21:00,
2014-10-22 21:26:00,47.8,41.3,30.24,North,0,3.1,5.4,78,0.00,,,0.09,pywws,2014-10-23 01:26:00,
2014-10-22 21:32:00,47.7,41.1,30.24,NE,45,3.8,6.9,78,0.00,,,0.09,pywws,2014-10-23 01:32:00,
2014-10-22 21:38:00,47.5,41.0,30.24,North,0,3.1,4.5,78,0.00,,,0.09,pywws,2014-10-23 01:38:00,
2014-10-22 21:44:00,47.3,41.1,30.24,North,0,3.8,8.3,79,0.00,,,0.09,pywws,2014-10-23 01:44:00,
2014-10-22 21:50:00,46.9,40.8,30.25,North,0,1.6,3.1,79,0.00,,,0.09,pywws,2014-10-23 01:50:00,
2014-10-22 21:56:00,46.8,40.6,30.24,North,0,1.6,3.1,79,0.00,,,0.09,pywws,2014-10-23 01:56:00,
2014-10-22 22:02:00,46.6,40.7,30.24,South,180,0.0,0.7,80,0.00,,,0.09,pywws,2014-10-23 02:02:00,
2014-10-22 22:09:00,46.4,40.6,30.24,North,0,0.7,3.1,80,0.00,,,0.09,pywws,2014-10-23 02:09:00,
2014-10-22 22:14:00,46.4,40.9,30.25,North,0,0.0,2.2,81,0.00,,,0.09,pywws,2014-10-23 02:14:00,
2014-10-22 22:20:00,46.2,40.7,30.25,NW,315,1.6,3.8,81,0.00,,,0.09,pywws,2014-10-23 02:20:00,
2014-10-22 22:26:00,46.2,40.7,30.24,North,0,3.1,4.5,81,0.00,,,0.09,pywws,2014-10-23 02:26:00,
2014-10-22 22:32:00,46.4,40.9,30.24,NE,45,1.6,3.8,81,0.00,,,0.09,pywws,2014-10-23 02:32:00,
2014-10-22 22:38:00,46.4,40.6,30.24,North,0,4.5,7.6,80,0.00,,,0.09,pywws,2014-10-23 02:38:00,